| time (UTC) | temp F | wind direction | speed MPH | gust MPH | rain 1hr in | rain 24hr in | rain mn in | humidity % | barometer mb |
| 20260508084532 | 56 | 85 | 0.0 | 4.0 | 0.00 | 0.00 | 0.00 | 86 | 1021.7 |
| 20260508083037 | 56 | 85 | 0.0 | 4.0 | 0.00 | 0.00 | 0.00 | 86 | 1021.8 |
| 20260508081529 | 56 | 85 | 1.0 | 6.0 | 0.00 | 0.00 | 0.00 | 86 | 1021.9 |
| 20260508080028 | 57 | 85 | 0.0 | 8.0 | 0.00 | 0.00 | 0.00 | 85 | 1021.9 |
| 20260508074535 | 57 | 84 | 1.0 | 6.0 | 0.00 | 0.00 | 0.00 | 85 | 1021.7 |
| 20260508073028 | 58 | 84 | 1.0 | 7.0 | 0.00 | 0.00 | 0.00 | 85 | 1021.8 |
| 20260508071522 | 58 | 84 | 1.0 | 6.0 | 0.00 | 0.00 | 0.00 | 84 | 1021.6 |
| 20260508070019 | 59 | 84 | 0.0 | 7.0 | 0.00 | 0.00 | 0.00 | 83 | 1021.5 |
| 20260508064517 | 59 | 84 | 1.0 | 7.0 | 0.00 | 0.00 | 0.00 | 82 | 1021.5 |
| 20260508063016 | 60 | 84 | 0.0 | 6.0 | 0.00 | 0.00 | 0.00 | 81 | 1021.5 |
| 20260508061518 | 60 | 84 | 0.0 | 2.0 | 0.00 | 0.00 | 0.00 | 80 | 1021.4 |
| 20260508060016 | 61 | 84 | 1.0 | 6.0 | 0.00 | 0.00 | 0.00 | 80 | 1021.3 |
| 20260508054517 | 61 | 84 | 0.0 | 3.0 | 0.00 | 0.00 | 0.00 | 78 | 1021.2 |
| 20260508053027 | 62 | 84 | 0.0 | 3.0 | 0.00 | 0.00 | 0.00 | 78 | 1021.2 |
| 20260508051513 | 63 | 84 | 0.0 | 2.0 | 0.00 | 0.00 | 0.00 | 77 | 1021.3 |
| 20260508050013 | 63 | 84 | 0.0 | 1.0 | 0.00 | 0.00 | 0.00 | 76 | 1021.2 |
| 20260508044513 | 64 | 84 | 0.0 | 2.0 | 0.00 | 0.00 | 0.00 | 76 | 1021.2 |
| 20260508043012 | 64 | 84 | 0.0 | 6.0 | 0.00 | 0.00 | 0.00 | 75 | 1021.0 |
| 20260508041518 | 65 | 84 | 0.0 | 4.0 | 0.00 | 0.00 | 0.00 | 73 | 1020.9 |
| 20260508040011 | 67 | 84 | 1.0 | 4.0 | 0.00 | 0.00 | 0.00 | 72 | 1020.8 |
| 20260508034511 | 68 | 84 | 1.0 | 4.0 | 0.00 | 0.00 | 0.00 | 70 | 1020.5 |
| 20260508033010 | 70 | 84 | 0.0 | 2.0 | 0.00 | 0.00 | 0.00 | 69 | 1020.4 |
| 20260508031510 | 71 | 84 | 1.0 | 4.0 | 0.00 | 0.00 | 0.00 | 65 | 1020.4 |
| 20260508030021 | 73 | 84 | 0.0 | 4.0 | 0.00 | 0.00 | 0.00 | 65 | 1020.2 |
| 20260508024510 | 75 | 84 | 2.0 | 6.0 | 0.00 | 0.00 | 0.00 | 64 | 1020.0 |
| 20260508023008 | 76 | 84 | 2.0 | 4.0 | 0.00 | 0.00 | 0.00 | 61 | 1019.9 |
| 20260508021512 | 77 | 84 | 0.0 | 6.0 | 0.00 | 0.00 | 0.00 | 61 | 1019.8 |
| 20260508020013 | 78 | 83 | 1.0 | 8.0 | 0.00 | 0.00 | 0.00 | 60 | 1019.9 |
| 20260508014507 | 80 | 82 | 1.0 | 6.0 | 0.00 | 0.00 | 0.00 | 57 | 1019.8 |
| 20260508013006 | 82 | 82 | 2.0 | 5.0 | 0.00 | 0.00 | 0.00 | 54 | 1019.9 |
| 20260508011512 | 82 | 82 | 0.0 | 4.0 | 0.00 | 0.00 | 0.00 | 52 | 1019.9 |
| 20260508010004 | 82 | 82 | 0.0 | 5.0 | 0.00 | 0.00 | 0.00 | 51 | 1020.0 |
| 20260508004503 | 83 | 82 | 1.0 | 5.0 | 0.00 | 0.00 | 0.00 | 50 | 1020.0 |
| 20260508003002 | 84 | 82 | 0.0 | 8.0 | 0.00 | 0.00 | 0.00 | 49 | 1020.1 |
| 20260508001501 | 85 | 80 | 0.0 | 4.0 | 0.00 | 0.00 | 0.00 | 47 | 1020.3 |
| 20260508000100 | 85 | 80 | 0.0 | 3.0 | 0.00 | 0.00 | 0.00 | 48 | 1020.3 |
| 20260507234559 | 85 | 80 | 1.0 | 4.0 | 0.00 | 0.00 | 0.00 | 48 | 1020.2 |
| 20260507233105 | 84 | 80 | 1.0 | 4.0 | 0.00 | 0.00 | 0.00 | 49 | 1020.3 |
| 20260507231556 | 85 | 80 | 1.0 | 4.0 | 0.00 | 0.00 | 0.00 | 48 | 1020.5 |
| 20260507230051 | 84 | 80 | 0.0 | 4.0 | 0.00 | 0.00 | 0.00 | 50 | 1020.8 |
| 20260507224555 | 83 | 79 | 1.0 | 9.0 | 0.00 | 0.00 | 0.00 | 51 | 1021.0 |
| 20260507223045 | 83 | 69 | 2.0 | 5.0 | 0.00 | 0.00 | 0.00 | 50 | 1021.1 |
| 20260507221541 | 82 | 69 | 1.0 | 5.0 | 0.00 | 0.00 | 0.00 | 52 | 1021.5 |
| 20260507220038 | 82 | 69 | 1.0 | 6.0 | 0.00 | 0.00 | 0.00 | 52 | 1021.7 |
| 20260507214535 | 82 | 69 | 1.0 | 5.0 | 0.00 | 0.00 | 0.00 | 51 | 1022.0 |
| 20260507213039 | 81 | 69 | 0.0 | 4.0 | 0.00 | 0.00 | 0.00 | 54 | 1022.2 |
| 20260507211529 | 80 | 69 | 0.0 | 3.0 | 0.00 | 0.00 | 0.00 | 54 | 1022.4 |
| 20260507210026 | 79 | 69 | 1.0 | 4.0 | 0.00 | 0.00 | 0.00 | 55 | 1022.6 |
| 20260507204624 | 79 | 69 | 2.0 | 5.0 | 0.00 | 0.00 | 0.00 | 55 | 1022.8 |
| 20260507203021 | 79 | 69 | 1.0 | 3.0 | 0.00 | 0.00 | 0.00 | 55 | 1023.0 |
| 20260507201521 | 78 | 70 | 0.0 | 5.0 | 0.00 | 0.00 | 0.00 | 56 | 1023.2 |
| 20260507200018 | 78 | 69 | 0.0 | 4.0 | 0.00 | 0.00 | 0.00 | 56 | 1023.3 |
| 20260507194514 | 77 | 69 | 0.0 | 4.0 | 0.00 | 0.00 | 0.00 | 59 | 1023.5 |
| 20260507193015 | 76 | 69 | 0.0 | 5.0 | 0.00 | 0.00 | 0.00 | 60 | 1023.7 |
| 20260507191511 | 75 | 69 | 2.0 | 3.0 | 0.00 | 0.00 | 0.00 | 62 | 1023.8 |
| 20260507190004 | 74 | 69 | 2.0 | 8.0 | 0.00 | 0.00 | 0.00 | 62 | 1024.0 |
| 20260507184559 | 73 | 71 | 2.0 | 5.0 | 0.00 | 0.00 | 0.00 | 65 | 1024.2 |
| 20260507183056 | 72 | 71 | 0.0 | 2.0 | 0.00 | 0.00 | 0.00 | 67 | 1024.3 |
| 20260507181556 | 70 | 71 | 1.0 | 4.0 | 0.00 | 0.00 | 0.00 | 69 | 1024.5 |
| 20260507180047 | 68 | 71 | 0.0 | 4.0 | 0.00 | 0.00 | 0.00 | 72 | 1024.4 |
| 20260507174554 | 67 | 71 | 0.0 | 5.0 | 0.00 | 0.00 | 0.00 | 73 | 1024.4 |
| 20260507173103 | 66 | 71 | 0.0 | 4.0 | 0.00 | 0.00 | 0.00 | 74 | 1024.6 |
| 20260507171544 | 65 | 71 | 0.0 | 3.0 | 0.00 | 0.00 | 0.00 | 75 | 1024.7 |
| 20260507170034 | 64 | 71 | 0.0 | 4.0 | 0.00 | 0.00 | 0.00 | 76 | 1024.8 |
| 20260507164533 | 63 | 71 | 0.0 | 4.0 | 0.00 | 0.00 | 0.00 | 79 | 1024.9 |
| 20260507163024 | 62 | 71 | 0.0 | 5.0 | 0.00 | 0.00 | 0.00 | 80 | 1024.7 |
| 20260507161528 | 61 | 71 | 1.0 | 4.0 | 0.00 | 0.00 | 0.00 | 82 | 1024.8 |
| 20260507160020 | 59 | 71 | 0.0 | 3.0 | 0.00 | 0.00 | 0.00 | 85 | 1024.7 |
| 20260507154518 | 58 | 71 | 0.0 | 3.0 | 0.00 | 0.00 | 0.00 | 87 | 1024.9 |
| 20260507153013 | 57 | 71 | 0.0 | 3.0 | 0.00 | 0.00 | 0.00 | 88 | 1024.9 |
| 20260507151511 | 56 | 71 | 2.0 | 4.0 | 0.00 | 0.00 | 0.00 | 89 | 1024.9 |
| 20260507150010 | 55 | 71 | 0.0 | 4.0 | 0.00 | 0.00 | 0.00 | 90 | 1024.9 |
| 20260507144508 | 55 | 71 | 1.0 | 5.0 | 0.00 | 0.00 | 0.00 | 90 | 1024.8 |
| 20260507143010 | 55 | 71 | 0.0 | 5.0 | 0.00 | 0.00 | 0.00 | 91 | 1024.7 |
| 20260507141502 | 55 | 71 | 1.0 | 5.0 | 0.00 | 0.00 | 0.00 | 90 | 1024.6 |
| 20260507140100 | 55 | 71 | 1.0 | 4.0 | 0.00 | 0.00 | 0.00 | 90 | 1024.5 |
| 20260507134603 | 55 | 71 | 0.0 | 1.0 | 0.00 | 0.00 | 0.00 | 90 | 1024.4 |
| 20260507133058 | 55 | 71 | 0.0 | 4.0 | 0.00 | 0.00 | 0.00 | 90 | 1024.1 |
| 20260507131553 | 55 | 71 | 0.0 | 6.0 | 0.00 | 0.00 | 0.00 | 90 | 1024.0 |
| 20260507130051 | 55 | 71 | 0.0 | 3.0 | 0.00 | 0.00 | 0.00 | 90 | 1023.9 |
| 20260507124549 | 55 | 71 | 0.0 | 4.0 | 0.00 | 0.00 | 0.00 | 90 | 1023.9 |
| 20260507123049 | 55 | 71 | 0.0 | 3.0 | 0.00 | 0.00 | 0.00 | 90 | 1023.8 |
| 20260507121548 | 56 | 71 | 0.0 | 4.0 | 0.00 | 0.00 | 0.00 | 89 | 1023.9 |
| 20260507120056 | 56 | 71 | 0.0 | 4.0 | 0.00 | 0.00 | 0.00 | 89 | 1023.8 |
| 20260507114546 | 56 | 71 | 1.0 | 4.0 | 0.00 | 0.00 | 0.00 | 89 | 1023.8 |
| 20260507113050 | 56 | 71 | 0.0 | 5.0 | 0.00 | 0.00 | 0.00 | 89 | 1023.8 |
| 20260507111546 | 56 | 71 | 0.0 | 0.0 | 0.00 | 0.00 | 0.00 | 88 | 1023.9 |
| 20260507110044 | 56 | 71 | 0.0 | 3.0 | 0.00 | 0.00 | 0.00 | 88 | 1023.7 |
| 20260507104542 | 56 | 71 | 0.0 | 3.0 | 0.00 | 0.00 | 0.00 | 88 | 1023.7 |
| 20260507103042 | 56 | 71 | 0.0 | 4.0 | 0.00 | 0.00 | 0.00 | 87 | 1023.7 |
| 20260507101541 | 57 | 69 | 0.0 | 5.0 | 0.00 | 0.00 | 0.00 | 86 | 1023.7 |
| 20260507100040 | 57 | 69 | 0.0 | 2.0 | 0.00 | 0.00 | 0.00 | 85 | 1023.7 |
| 20260507094536 | 57 | 69 | 2.0 | 6.0 | 0.00 | 0.00 | 0.00 | 84 | 1023.7 |
| 20260507093036 | 58 | 69 | 0.0 | 2.0 | 0.00 | 0.00 | 0.00 | 84 | 1023.7 |
| 20260507091534 | 58 | 69 | 0.0 | 3.0 | 0.00 | 0.00 | 0.00 | 84 | 1023.8 |
| 20260507090033 | 58 | 69 | 0.0 | 1.0 | 0.00 | 0.00 | 0.00 | 83 | 1023.9 |